Skip Page Navigation
NASA JPL Caltech
NASA Logo - Jet Propulsion Laboratory + View the NASA Portal
+ Center for Near-Earth Object Studies
JPL Home Earth Solar System Stars & Galaxies Technology
JPL Solar System Dynamics
BODIES ORBITS EPHEMERIDES TOOLS PHYSICAL DATA DISCOVERY FAQ SITE MAP
JPL Small-Body Database Browser
Search: [ help ]  
34590 (2000 TS2)
Classification: Main-belt Asteroid          SPK-ID: 2034590
Ephemeris | Orbit Diagram | Orbital Elements | Mission Design | Physical Parameters | Discovery Circumstances | Close-Approach Data ]

[ show orbit diagram ]
Orbital Elements at Epoch 2459000.5 (2020-May-31.0) TDB
Reference: JPL 22 (heliocentric ecliptic J2000)
 Element Value Uncertainty (1-sigma)   Units 
e .1014850708802905 3.5741e-08  
a 2.81405169141736 1.7183e-08 au
q 2.528467456053068 1.0503e-07 au
i 12.14403752576993 4.4945e-06 deg
node 164.6899302898504 1.678e-05 deg
peri 327.672499125038 2.6997e-05 deg
M 282.1690267662987 2.1689e-05 deg
tp 2459373.274754885997
(2021-Jun-07.77475489)
0.0001051 TDB
period 1724.235303546863
4.72
1.5792e-05
4.324e-08
d
yr
n .2087882084652001 1.9123e-09 deg/d
Q 3.099635926781652 1.8927e-08 au
  Orbit Determination Parameters
   # obs. used (total)      834  
   data-arc span      8920 days (24.42 yr)  
   first obs. used      1995-08-22  
   last obs. used      2020-01-23  
   planetary ephem.      DE431  
   SB-pert. ephem.      SB431-N16  
   condition code      0  
   norm. resid. RMS      .55944  
   source      ORB  
   producer      Otto Matic  
   solution date      2020-Feb-23 03:31:16  

Additional Information
 Earth MOID = 1.54994 au 
 Jupiter MOID = 1.93545 au 
 T_jup = 3.280 
[ show covariance matrix ]

Ephemeris | Orbit Diagram | Orbital Elements | Mission Design | Physical Parameters | Discovery Circumstances | Close-Approach Data ]

Physical Parameter Table
Parameter Symbol Value Units Sigma Reference Notes
absolute magnitude H 14.9   n/a MPO452655  

34590 (2000 TS2)          Discovered 2000-Oct-01 by LINEAR at Socorro
Reference: 20020128/Numbers.arcLast Updated: 2004-04-19

[ hide close-approach data ]
Close-Approach Data   ...sorted by Date/Time (TDB)
Date/Time (TDB) Time Uncertainty
(days_HH:MM)
Body Nominal Distance (au) Minimum Distance (au) Maximum Distance (au) V-relative (km/s) V-infinity (km/s) JD (TDB) Time Uncertainty (minutes) Semi-major axis (km) Semi-minor axis (km) range-LOV angle (deg) N-sigma BP Orbit Ref. Reference Modified
1915-Oct-28 00:32 00:03 Jupiter 1.97828882493547 1.97828796410325 1.9782896857795 4.23570818858929 4.13338910631684 2420798.522490529 2.85900376080936 269.485490751806 15.2748020981947 82.0359259165682 3647488.55469818 T 22 CATAB v2.0f-lin.ifort 2020-Feb-23 03:31:31 2020-Feb-23 03:31
1939-May-06 21:55 00:02 Jupiter 1.9536313375937 1.95363083720512 1.95363183798672 4.15838629815636 4.05278303718827 2429390.413320791 2.10100142479086 204.442243144946 15.3202763979224 85.3507606406397 3539181.00829393 T 22 CATAB v2.0f-lin.ifort 2020-Feb-23 03:31:31 2020-Feb-23 03:31
1962-Nov-19 19:42 00:01 Jupiter 1.9416961202034 1.94169574799312 1.94169649241423 4.08777423256063 3.97962835785867 2437988.320758337 1.40960737466622 140.529555021561 15.3754283807641 87.563279026197 3469940.2841878 T 22 CATAB v2.0f-lin.ifort 2020-Feb-23 03:31:31 2020-Feb-23 03:31
1986-Jun-04 08:40 < 00:01 Jupiter 1.94526420002299 1.94526385414796 1.94526454589802 4.01929779220602 3.90946271580486 2446585.861353782 0.771475141195259 82.6830055851681 15.3667109345239 89.1589141330593 3458147.14351743 T 22 CATAB v2.0f-lin.ifort 2020-Feb-23 03:31:31 2020-Feb-23 03:31
2009-Dec-18 08:11 < 00:01 Jupiter 1.94780746411465 1.94780712475082 1.94780780347848 3.93335165778861 3.82119566754686 2455183.840786993 0.20564191520582 47.1506624489245 14.4745975439819 85.4311778199177 3519740.33664381 T 22 CATAB v2.0f-lin.ifort 2020-Feb-23 03:31:31 2020-Feb-23 03:31
2033-Jun-30 03:52 < 00:01 Jupiter 1.9690174895963 1.96901713515681 1.96901784403579 3.8540681264606 3.7407874437894 2463778.661356730 0.498817082963194 61.512496143762 15.816650445124 -87.5298138333604 3495280.54883545 T 22 CATAB v2.0f-lin.ifort 2020-Feb-23 03:31:31 2020-Feb-23 03:31

Alternate Designations
 2000 TS2 = 1998 AM9 
Ephemeris | Orbit Diagram | Orbital Elements | Mission Design | Physical Parameters | Discovery Circumstances | Close-Approach Data ]
ABOUT SSD CREDITS/AWARDS PRIVACY/COPYRIGHT GLOSSARY LINKS
FirstGov 2020-Oct-30 08:19 UT
(server date/time)  
NASA Home Page
Site Manager:   Ryan S. Park
Webmaster  Alan B. Chamberlin